The Dilly Family's Weather Page
McMurray, PA 15317   Weather
Using a La Crosse Technology Model 2315 Weather Station

  Local Radar

Local Radar

  Graphs, Details
Graphs and Gauges
Detailed Weather
Detailed Reports
Mobile Version of This Page
Brief Version of This Page
  Maps
Temperature
Heat Index
Windchill
Humidity
Radar
Dew Point
Wind
Visibility
Visible Satellite
Satellite
Fronts
Snow Depth
Jet Stream
Flight Rules
  Forecast Maps
Temperature Forecast
Maximum Temperature Forecast
Minimum Temperature Forecast
Dewpoint Forecast
Prevalent Weather
12Hr Probability of Precip.
Sky Cover
  Health Maps
UV Forecast
Air Quality
Peak Air Quality Index
  Weather Station
La Crosse Technology
 
 
Weather Underground PWS KPAMCMUR4
KPAMCMUR4 Dashboard
  Current Conditions [Select Refresh to Update]

Updated: 11:30am on 9/17/14

Currently:
61.8°

Clear
Mostly Cloudy

High: 61.8° 
(11:28am) 
Low: 47.3° 
(6:26am)
Wind: 0 mph from the NE
Gust: 0 mph
Today's High Wind: 2 mph (11:16am)
Humidity: 78%
Pressure: 30.01 in  (Steady) 
Pressure Rate: -0.017 in/hr
Dew Point: 54.9°
Wind Chill: 61.8°
Heat Index (feels like): 65.8°
Comfort Level: Comfortable
Temperature Rate:  4.23°/hr
 
  5 Day Forecast
 
Wed Thu Fri Sat Sun
Clear Clear Clear Clear Clear
Partly Cloudy Partly Cloudy Partly Cloudy Mostly Cloudy Chance T-storms
68° 68° 70° 73° 75°
45° 45° 52° 59° 48°

  Records and Normals
 
Temperature Forecast Normal Record
High 68° 76° 91°
(1991)
Low 45° 58° 33°
(1996)
 
  Almanac
Sunrise:  
7:05am
Moonrise: 
1:01am

Moon Phase:
41%

Sunset: 
7:28pm
Moonset:  
3:35pm
 
  Weather Underground     KPAMCMUR4

  Weather Advisories
No Warning
Full Advisory Text...
  Weather Map

 
  Web Cams   (Northerly View)
Northerly view toward Pittsburgh.
 
  Rainfall Totals
Hourly Rain 0.00 in
Daily Rain 0.00 in
Monthly Rain 0.40 in
Yearly Rain 26.83 in
Normal Rain, month to date       0.00 in
Normal Rain, year to date 0.00 in
 
 
Weather.com
WeatherUnderground NorthEast Fronts
WeatherUnderground NorthEast Radar
WeatherBug NorthEast Radar
WeatherBug, Peters HS
WPXI Weather
KDKA Weather
WTEA Weather
Intellacast Canonsburg
AccuWeather
Yahoo, McMurray
Twitter, Pittsburgh
Fox53 Radar
Time and Date, Pittsburgh
NOAA Weather Pitt
FilghtStats PIT
NWS Thompsonville
USGS Tides and Temperature at Manasquan
NWS US Radar - Loop
  Local Weather Exchange Network
Station ID

City 
(Click for Map Location)

Neighborhood 
(Click for History)
Last Update (Date & Time)

Temperature
 (°)

Dew
Point (°)
Humidity 
(%)
Wind 
(mph)
from the Wind Gust 
(mph) 
Pressure (in) Hourly
Rain (in)
KPACANON4 Canonsburg Morgan's Point 09/17 11:20:47 65.3 56.0 72 1 ESE 0 29.79 0.00
KPACANON5 Canonsburg Canonsburg 09/17 11:29:47 63.1 55.0 74 0 East 1 30.06 0.00
KPAMCMUR4 McMurray Thompsonville-McMurray 09/17 11:25:01 61.7 55.0 78 0 NE 0 30.02 0.00
KPACANON6 Canonsburg Sunset Acres, McMurray PA KPACANON6 09/17 11:27:01 64.8 54.0 67 2 South 0 29.99 0.00
KPAMCMUR3 McMurray St. Benedict the Abbot 09/17 11:29:47 65.5 56.0 72 5 ESE 7 29.99 0.00
KPABRIDG2 Bridgeville Hunting Ridge 09/17 11:15:04 61.9 53.0 73 0 West 0 28.86 0.00
KPAEIGHT3 Eighty Four Nottingham Twp. 09/17 11:29:45 63.4 54.0 72 7 South 7 30.10 0.00
KPAVENET5 Venetia Willamar 09/17 11:22:22 64.6 54.0 68 0 ESE 0 29.95 0.00
KPABRIDG1 Bridgeville Olde Orchard South Fayette Bridgeville 09/17 11:25:16 65.1 51.0 61 0 North 0 29.95 0.00
KPAVENET3 Venetia Bower Hill Rd 09/17 11:29:38 67.0 58.0 74 0 East 1 30.03 0.00
KPABETHE4 Bethel Park Bethel Park, PA - Terrasurv 09/17 11:25:47 63.7 55.0 74 3 WSW 0 30.06 0.00
KPABETHE3 Bethel Park Bethel Park 09/17 11:25:16 65.8 58.0 75 3 SW 5 30.03 0.00
KPAWASHI5 Washington Cameron Estates/South Strabane 09/17 11:21:11 61.6 53.0 73 2 NNE 0 30.06 0.00
KPAVENET4 Venetia Sugar Run Road 09/17 11:25:05 61.7 51.0 69 0 East 1 29.83 0.00
KPAMTLEB2 Mount Lebanon Mount Lebanon 09/17 11:29:43 68.7 38.0 32 4 NW 0 30.05 0.00
KPASCOTT2 Scott Township Scott Township Neighborhood Weather 09/17 11:29:43 64.9 46.0 51 0 SW 3 30.07 0.00
KPAPITTS29 Pittsburgh Carrick/Pittsburgh 09/17 11:29:00 66.4 55.0 66 0 ESE 5 30.02 0.00
KPACRAFT2 Crafton Bradford Court 09/17 11:29:43 66.6 57.0 72 1 West 3 29.88 0.00
KPAPITTS58 Pittsburgh Robinson Township 09/17 11:29:39 63.0 54.0 73 2 NNE 2 30.02 0.00
KPAIMPER5 Imperial Imperial 09/17 11:29:47 68.8 57.0 67 2 WSW 6 30.03 0.00
KPAIMPER1 Imperial Imperial Neighborhood Weather 09/17 11:26:40 63.7 52.0 66 0 East 0 30.01 0.00
KPAPITTS62 Pittsburgh Crafton Heights 09/17 11:29:34 62.1 48.0 59 0 NNE 0 29.96 0.00
KPAWASHI2 Washington South Franklin, Alamae Lakes 09/17 11:25:33 63.6 56.0 77 1 NNE 3 30.02 0.00
KPAMOON3 Moon Sonoma Ridge 09/17 11:25:46 65.0 52.0 62 3 East 7 30.04 0.00
KPABURGS2 Burgsttown Pa Burgettstown PA 09/17 11:15:43 72.7 51.0 47 0 SSE 0 29.97 0.00
KPAMUNHA2 Munhall Lower Gates Manor 09/17 11:19:43 63.1 53.0 69 0 ESE 0 30.05 0.00
KPACORAO3 Coraopolis Route 51 09/17 11:29:44 66.7 54.0 63 3 SE 3 32.05 0.00
KPAPITTS56 Pittsburgh Carnegie Mellon University 09/17 11:26:42 65.3 52.0 63 0 WNW 3 --- 0.00
KPAPITTS75 Pittsburgh Shadyside 09/17 11:18:11 65.5 51.0 60 1 North 3 30.03 0.00
KPAPITTS33 Pittsburgh Squirrel Hill 09/17 11:20:00 61.6 49.0 63 0 North 0 29.26 0.00
KAFJ Washington Official Station 09/17 11:15:00 63.0 54.0 72 0 North --- 30.07 ---
KAGC Pittsburgh Allegheny Co. Official Station 09/17 10:53:00 61.0 50.0 67 5 SE --- 30.07 ---
KPIT Pittsburgh Official Station 09/17 10:51:00 62.0 48.0 60 5 Variable --- 30.08 ---
KHLG Wheeling Official Station 09/17 10:53:00 62.0 48.0 60 7 East --- 30.07 ---
  Full Advisory Text
No Warnings

9/17/14 4+ 11:30am   - http://weatherstation.wunderground.com/weatherstation/updateweatherstation.php?action=updateraw&ID=KPASMITH2&PASSWORD=&dateutc=2010-07-05+22%3A09%3A33&winddir=NE&tempf=61.8&windspeedmph=0&humidity=78&dewptf=54.9&baromin=30.01&rainin=0.00&dailyrainin=0.00

Ambient Weather and Weather Underground
 Never base important decisions on this or any weather information obtained from the Internet
Updated Automatically by Ambient Weather's Virtual Weather Station  V14.00

Template updated: 5:35 PM 6/9/2011